Regional Weather Roundup
Issued by NWS

Home | Current Version | Previous Version | Graphics & Text | Print | Product List | Glossary On
Versions: 1 2 3 4 5 6 7 8 9 10 11 12 13 14 15 16 17 18 19 20 21 22 23 24 25 26 27 28 29 30 31 32 33 34 35 36 37 38 39 40 41 42 43 44 45 46 47 48 49 50
000
ASUS45 KTFX 261910
RWRMT
MONTANA REGIONAL WEATHER ROUNDUP
NATIONAL WEATHER SERVICE GREAT FALLS MT
100 PM MDT TUE MAY 26 2015

NOTE: "FAIR" INDICATES FEW OR NO CLOUDS BELOW 12000 FEET WITH NO
SIGNIFICANT WEATHER AND/OR OBSTRUCTIONS TO VISIBILITY.

MTZ001>007-043-262000-
WEST OF THE DIVIDE

CITY           SKY/WX    TMP DP  RH WIND       PRES   REMARKS
KALISPELL      PTCLDY    67  43  41 SE8       29.95F
MISSOULA       PTSUNNY   62  43  49 E3        29.98F
BUTTE          PTSUNNY   59  34  39 CALM      30.01S
MULLAN PASS    CLOUDY    48  40  73 CALM      30.03S
DEER LODGE       N/A     63  41  45 E5        30.02F
EUREKA           N/A     63  46  55 NW10      29.98F
HAMILTON         N/A     61  43  51 NE6       29.97F
LIBBY            N/A     55  50  82 NE5       30.00F
RONAN            N/A     63  49  60 N2        30.03F
$$

MTZ008-052>055-262000-
SOUTHWEST MONTANA

CITY           SKY/WX    TMP DP  RH WIND       PRES   REMARKS
BOZEMAN        PTSUNNY   60  47  61 VRB3      29.99F
DILLON         MOSUNNY   64  39  39 VRB3      29.98F
W YELLOWSTONE  CLOUDY    52  41  66 SE8       30.05F
THREE FORKS      N/A     64  40  41 E1        29.98F
TWIN BRIDGES     N/A     63  38  39 SE7       29.98F
$$

MTZ009-010-012-014-046-048-049-054-262000-
EAST SLOPES AND CENTRAL MONTANA

CITY           SKY/WX    TMP DP  RH WIND       PRES   REMARKS
CUT BANK       CLOUDY    54  50  86 N7        30.00R
GREAT FALLS    CLOUDY    60  49  66 N7        29.97S
HELENA         MOSUNNY   67  46  47 E10       29.96R
CONRAD           N/A     56  56 100 N3        30.02R
$$

MTZ011-013-016-021-045-047-050-051-262000-
NORTH CENTRAL MONTANA

CITY           SKY/WX    TMP DP  RH WIND       PRES   REMARKS
HAVRE          CLOUDY    69  49  48 SW9G18    29.92S
LEWISTOWN      LGT RAIN  51  49  92 NW7       29.99R FOG
N BAR RANCH    FAIR      64  48  55 VRB6      29.97S
CHINOOK          N/A     70  52  52 W12       29.91S
FORT BENTON      N/A     55  54  94 W3        30.00R
$$

MTZ017>020-022>027-061-062-262000-
NORTHEAST MONTANA

CITY           SKY/WX    TMP DP  RH WIND       PRES   REMARKS
GLASGOW        SUNNY     73  46  38 VRB6      29.89F
JORDAN           N/A     74  46  36 VRB3      29.89F
SIDNEY         SUNNY     75  46  35 SE7       29.91F
WOLF POINT     MOSUNNY   76  50  40 VRB5      29.90F
MALTA            N/A     75  52  44 CALM      29.87F
POPLAR           N/A     75  45  33 SE5G18    29.90F
SCOBEY           N/A     76  42  29 SE9       29.91F
$$

MTZ028>42-056>058-262000-
SOUTHCENTRAL AND SOUTHEAST MONTANA

CITY           SKY/WX    TMP DP  RH WIND       PRES   REMARKS
BAKER          MOSUNNY   71  49  45 SE8G18    29.95F
BILLINGS       PTSUNNY   71  45  39 SW8       29.92F
LIVINGSTON     PTSUNNY   62  44  51 NW8       29.97F
MILES CITY     MOSUNNY   71  48  43 VRB7      29.90F
BIG TIMBER       N/A     64  43  45 W14G22    29.96F
EKALAKA          N/A     67  49  52 SE7       29.95F
FORSYTH          N/A     73  45  35 E5        29.89F
LAUREL           N/A     68  46  45 CALM      29.92F
ROUNDUP          N/A     68  50  52 NE8       29.84F
$$

REGIONAL REPORTS...DAKOTAS

CITY           SKY/WX    TMP DP  RH WIND       PRES   REMARKS
WILLISTON      SUNNY     78  39  24 SW10      29.91F
MINOT          MOSUNNY   81  43  26 NW13      29.85F
DICKINSON      SUNNY     75  41  29 SE9       29.92F
BEACH          FAIR      72  46  40 SW16      29.95S
CROSBY         FAIR      81  41  24 W10       29.89F
WATFORD CITY   FAIR      75  45  33 W5        29.90S
BISMARCK       SUNNY     79  48  33 NW10      29.89F
GRAND FORKS    MOSUNNY   83  49  30 N5        29.76F
FARGO          PTSUNNY   74  57  55 S9        29.80F
BUFFALO SD       N/A     71  47  42 S16       29.90F
RAPID CITY     MOSUNNY   68  46  45 S8G20     29.98F
$$

REGIONAL REPORTS...WYOMING/IDAHO/WASHINGTON

CITY           SKY/WX    TMP DP  RH WIND       PRES   REMARKS
GILLETTE       MOSUNNY   66  48  52 SE8       29.95F
SHERIDAN       MOSUNNY   68  46  45 N3        29.94S
BUFFALO WY     MOSUNNY   64  47  53 S6        29.98S
CODY           PTSUNNY   63  43  48 E3        29.96F
YELLOWSTONE LA   N/A     47  39  74 W9G18     30.12R
IDAHO FALLS    PTSUNNY   64  48  56 SW20G25   30.01S
SALMON         MOSUNNY   63  46  55 W3        29.95F
BOISE          MOSUNNY   70  47  43 CALM      29.93F
SPOKANE        PTSUNNY   58  49  72 CALM      29.98S
$$

REGIONAL REPORTS...ALBERTA

CITY           SKY/WX    TMP DP  RH WIND       PRES   REMARKS
EDMONTON       MOSUNNY   75  46  35 N10       29.96F
CALGARY        CLOUDY    66  43  42 NW10      29.99F
LETHBRIDGE     PTSUNNY   59  48  67 W20G28    29.99R
MEDICINE HAT   CLOUDY    77  45  31 VRB5      29.89F
$$

REGIONAL REPORTS...SASKATCHEWAN

CITY           SKY/WX    TMP DP  RH WIND       PRES   REMARKS
SWIFT CURRENT  PTSUNNY   73  37  27 SE24G30   29.89S HAZE
REGINA         PTSUNNY   81  37  21 NW13G21   29.85F
SASKATOON      PTSUNNY   81  37  21 NW7G18    29.85F
$$



USA.gov is the U.S. government's official web portal to all federal, state and local government web resources and services.